Regional Weather Roundup
Issued by NWS

Home | Current Version | Previous Version | Text Only | Print | Product List | Glossary Off
Versions: 1 2 3 4 5 6 7 8 9 10 11 12 13 14 15 16 17 18 19 20 21 22 23 24 25 26 27 28 29 30 31 32 33 34 35 36 37 38 39 40 41 42 43 44 45 46 47 48 49 50

000
ASUS43 KBIS 260610
RWRND

NORTH DAKOTA REGIONAL WEATHER ROUNDUP
NATIONAL WEATHER SERVICE BISMARCK ND
1200 AM CST WED NOV 26 2014

NOTE: "FAIR" INDICATES FEW OR NO CLOUDS BELOW 12,000 FEET WITH NO
SIGNIFICANT WEATHER AND/OR OBSTRUCTIONS TO VISIBILITY.


NDZ001>003-009>011-017-260700-
NORTHWEST NORTH DAKOTA

CITY           SKY/WX    TMP DP  RH WIND       PRES   REMARKS
WILLISTON      CLOUDY    16  10  77 NE7       30.21R WCI   6
6HR MIN TEMP:  16; 6HR MAX TEMP:  24;

MINOT          MOCLDY     4   0  83 NW8       30.19R WCI  -9
MINOT AFB      MOCLDY     1   0  92 NW10      30.21R WCI -14
$$

NDZ018>021-031>035-040>046-260700-
SOUTHWEST NORTH DAKOTA

CITY           SKY/WX    TMP DP  RH WIND       PRES   REMARKS
BISMARCK       CLOUDY    17  12  80 N10       30.13R WCI   5
6HR MIN TEMP:  17; 6HR MAX TEMP:  33; 6HR PCP: TRACE;

DICKINSON      CLOUDY    20  16  84 N9        30.10R WCI   9
GARRISON         N/A     12   8  84 N9G17     30.15R WCI   0
6HR MIN TEMP:  12; 6HR MAX TEMP:  25; 6HR PCP:  0.02;

HETTINGER ARPT CLOUDY    21  17  84 N17G26    30.10R WCI   7
$$

NDZ004>008-012>016-024-026-027-054-260700-
NORTHEAST NORTH DAKOTA

CITY           SKY/WX    TMP DP  RH WIND       PRES   REMARKS
GRAND FORKS    LGT SNOW  11   6  81 N16       30.16R WCI  -6
GRND FRKS AFB  CLOUDY    10   5  83 N15       30.16R WCI  -7
DEVILS LAKE    PTCLDY     7  -4  61 NE14      30.13R WCI -10
$$

NDZ022-023-025-028>030-036>039-047>053-260700-
SOUTHEAST NORTH DAKOTA

CITY           SKY/WX    TMP DP  RH WIND       PRES   REMARKS
FARGO          LGT SNOW  20  15  81 N17G28    30.07R WCI   5
6HR MIN TEMP:  20; 6HR MAX TEMP:  26; 6HR PCP:  0.04;

JAMESTOWN      LGT SNOW  13   9  84 N18       30.05R FOG     WCI  -4
$$



USA.gov is the U.S. government's official web portal to all federal, state and local government web resources and services.